Indianapolis, IN

6:11 AM EDT on May 27, 2018 (GMT -0400)
Indianapolis International

Weather History for KIND - October, 2012

Change the Weather History Date:

Sunday, October 28, 2012

  Actual Average Record
Temperature  
Mean Temperature 43 °F 51 °F  
Max Temperature 50 °F 61 °F 82 °F (1927)
Min Temperature 36 °F 41 °F 20 °F (1976)
Degree Days  
Heating Degree Days 22 14  
Month to date heating degree days 308 282  
Since 1 July heating degree days 396 357  
Cooling Degree Days 0 0  
Month to date cooling degree days 4 13  
Year to date cooling degree days 1534 1062  
Moisture  
Dew Point 32 °F    
Average Humidity 67    
Maximum Humidity 85    
Minimum Humidity 49    
Precipitation  
Precipitation 0.00 in 0.10 in 1.72 in (1883)
Month to date precipitation 3.73 2.81  
Year to date precipitation 33.95 35.26  
Snow  
Snow 0.00 in 0.00 in 0.60 in (1925)
Month to date snowfall 0.0 0.3  
Since 1 July snowfall T 0.3  
Since 1 September snowfall T 0.3  
Snow Depth 0.00 in    
Sea Level Pressure  
Sea Level Pressure 30.15 in    
Wind  
Wind Speed 12 mph (North)    
Max Wind Speed 21 mph    
Max Gust Speed 24 mph    
Visibility 10 miles    
Events      
T = Trace of Precipitation, MM = Missing Value Source: NWS Daily Summary

Daily Weather History Graph

Daily Weather History Graph

Search for Another Location

Airport or City:

Astronomy

Oct. 28, 2012 Rise Set
Actual Time 8:09 AM EDT 6:47 PM EDT
Civil Twilight 7:42 AM EDT 7:15 PM EDT
Nautical Twilight 7:10 AM EDT 7:46 PM EDT
Astronomical Twilight 6:38 AM EDT 8:18 PM EDT
Moon 6:04 PM EDT (10/28) 7:02 AM EDT (10/28)
Length of Visible Light 11h 33m
Length of Day
10h 37m
Waxing Gibbous, 99% of the Moon is Illuminated
Oct 28
Waxing Gibbous
Oct 29
Full
Nov 6
Last Quarter
Nov 13
New
Nov 20
First Quarter

Hourly Weather History & Observations

Time (EDT) Temp. Windchill Dew Point Humidity Pressure Visibility Wind Dir Wind Speed Gust Speed Precip Events Conditions
12:54 AM 39.9 °F 33.9 °F 34.0 °F 79% 30.16 in 10.0 mi North 9.2 mph - N/A   Mostly Cloudy
1:54 AM 39.0 °F 31.8 °F 34.0 °F 82% 30.16 in 10.0 mi North 11.5 mph - N/A   Clear
2:54 AM 39.0 °F 32.8 °F 34.0 °F 82% 30.16 in 10.0 mi North 9.2 mph - N/A   Mostly Cloudy
3:54 AM 37.9 °F 32.1 °F 33.1 °F 83% 30.16 in 10.0 mi North 8.1 mph - N/A   Scattered Clouds
4:54 AM 37.0 °F 31.0 °F 33.1 °F 86% 30.16 in 10.0 mi North 8.1 mph - N/A   Scattered Clouds
5:54 AM 37.0 °F 30.4 °F 33.1 °F 86% 30.16 in 10.0 mi North 9.2 mph - N/A   Mostly Cloudy
6:54 AM 37.0 °F 31.0 °F 32.0 °F 82% 30.16 in 10.0 mi North 8.1 mph - N/A   Scattered Clouds
7:54 AM 37.0 °F 28.9 °F 32.0 °F 82% 30.16 in 10.0 mi North 12.7 mph - N/A   Mostly Cloudy
8:54 AM 37.4 °F 29.3 °F 32.0 °F 81% 30.15 in 10.0 mi North 12.7 mph - N/A   Overcast
9:54 AM 39.9 °F 32.9 °F 32.0 °F 73% 30.18 in 10.0 mi NNE 11.5 mph - N/A   Overcast
10:54 AM 43.0 °F 35.7 °F 32.0 °F 65% 30.17 in 10.0 mi NNE 15.0 mph 23.0 mph N/A   Overcast
11:54 AM 46.9 °F - 33.1 °F 59% 30.17 in 10.0 mi NE 10.4 mph - N/A   Overcast
12:54 PM 48.0 °F - 30.9 °F 52% 30.15 in 10.0 mi NNE 10.4 mph 19.6 mph N/A   Mostly Cloudy
1:54 PM 48.0 °F - 30.9 °F 52% 30.13 in 10.0 mi North 15.0 mph 23.0 mph N/A   Mostly Cloudy
3:54 PM 46.9 °F - 32.0 °F 56% 30.12 in 10.0 mi North 16.1 mph 24.2 mph N/A   Mostly Cloudy
4:54 PM 46.9 °F - 32.0 °F 56% 30.13 in 10.0 mi North 12.7 mph - N/A   Overcast
5:54 PM 46.0 °F 39.6 °F 30.9 °F 56% 30.14 in 10.0 mi North 15.0 mph - N/A   Overcast
6:54 PM 46.0 °F 39.6 °F 28.9 °F 51% 30.15 in 10.0 mi North 15.0 mph 19.6 mph N/A   Overcast
7:54 PM 45.0 °F 39.3 °F 28.9 °F 53% 30.15 in 10.0 mi NNW 11.5 mph - N/A   Overcast
8:54 PM 44.1 °F 37.4 °F 30.0 °F 58% 30.15 in 10.0 mi North 13.8 mph - N/A   Overcast
9:54 PM 44.1 °F 38.1 °F 30.0 °F 58% 30.15 in 10.0 mi North 11.5 mph - N/A   Overcast
10:54 PM 44.1 °F 36.5 °F 28.9 °F 55% 30.15 in 10.0 mi North 17.3 mph 23.0 mph N/A   Overcast
11:54 PM 41.0 °F 35.2 °F 30.0 °F 65% 30.15 in 10.0 mi North 9.2 mph - N/A   Mostly Cloudy